Location: Krasnoyarskiy Pitomnik
(51.1333°N, 71.6167°E)
Time: 17:42:43
(UTC+00:00)

Courier 1B - All Passes

Search period start: 23 April 2024 00:00
Search period end: 03 May 2024 00:00
Orbit: 962 x 1208 km, 28.3° (Epoch: 23 April)

Date Brightness Start Highest point End Pass type
(mag) Time Alt. Az. Time Alt. Az. Time Alt. Az.
23 Apr - 21:32:26 10° SSW 21:33:48 11° S 21:35:09 10° S visible
24 Apr - 20:38:48 10° S 20:40:18 11° S 20:41:47 10° SSE visible
25 Apr - 19:45:51 10° S 19:46:47 10° S 19:47:44 10° SSE night (unlit)
25 Apr - 21:38:22 10° SSW 21:39:18 10° S 21:40:14 10° S visible
26 Apr - 20:43:48 10° SSW 20:45:48 11° S 20:47:47 10° SSE visible
27 Apr - 19:49:57 10° SSW 19:52:16 11° S 19:54:34 10° SSE night (unlit)
28 Apr - 18:56:32 10° SSW 18:58:44 11° S 19:00:56 10° SSE night (unlit)
28 Apr - 20:50:30 10° SSW 20:51:16 10° S 20:52:01 10° S visible
29 Apr - 18:03:39 10° S 18:05:11 11° S 18:06:43 10° SSE night (unlit)
29 Apr - 19:55:35 10° SSW 19:57:45 11° S 19:59:53 10° S night (unlit)
30 Apr - 19:01:35 10° SSW 19:04:12 12° S 19:06:49 10° SSE night (unlit)
01 May - 18:08:00 10° SSW 18:10:39 12° S 18:13:17 10° SSE night (unlit)
02 May - 17:14:48 10° S 17:17:05 11° S 17:19:23 10° SSE visible
02 May - 19:07:47 10° SSW 19:09:40 11° S 19:11:32 10° S night (unlit)
